Probability
23 23 48 52 52 52 52 55 61 55 55 48 48 45 48 45 45 45 45 42 39 39 39 35 32 29 19 13 10 10 10 13 16 13 13 13 6 3 0 0 0 0 0
19 23 45 52 52 52 52 55 52 48 48 45 45 45 48 42 45 42 35 35 39 39 32 29 32 26 19 10 10 6 6 10 10 13 16 10 6 0 0 0 0 0 0
16 26 35 45 48 55 52 45 45 45 45 42 45 42 52 42 29 29 32 32 32 29 29 29 32 26 16 10 6 10 6 6 10 10 3 0 0 0 0 0 0 0 0
19 26 29 42 42 42 48 42 42 45 42 42 39 35 39 32 29 29 26 23 26 29 29 32 29 26 10 6 10 10 6 3 3 3 0 0 0 0 0 0 0 0 0
23 23 32 42 42 42 42 35 35 35 39 45 39 35 32 26 23 29 29 26 26 26 26 23 23 19 10 6 10 3 3 3 3 3 0 0 0 0 0 0 0 0 0
23 23 32 42 42 42 42 35 35 32 32 29 32 29 32 26 26 29 29 29 29 26 26 23 26 16 10 6 3 3 3 3 3 0 0 0 0 0 0 0 0 0 0
26 16 26 42 42 32 26 29 35 35 32 23 19 26 32 29 29 32 32 29 29 29 26 23 19 19 6 6 3 0 0 0 0 0 0 0 0 3 3 0 0 0 0
23 19 23 39 32 29 26 29 32 35 23 19 16 26 23 23 26 29 32 32 26 26 23 19 19 16 10 3 3 3 0 0 0 0 0 0 0 3 0 0 3 3 0
23 19 16 23 23 29 23 23 26 19 19 19 19 19 19 19 19 26 32 26 19 23 19 19 19 16 10 3 3 3 0 0 0 0 0 0 3 0 0 0 3 0 0
23 16 16 19 19 13 13 13 16 16 19 19 19 13 13 19 19 23 23 19 19 19 19 16 16 13 10 10 6 3 0 0 0 0 0 0 3 3 0 3 0 0 0
19 19 16 16 13 10 10 10 10 13 16 16 13 13 10 10 16 19 13 16 16 16 16 16 16 13 6 6 6 0 0 0 0 0 0 0 0 0 0 0 0 0 0
19 13 13 13 16 10 10 10 10 10 10 10 13 10 6 6 3 6 3 10 13 13 13 16 13 6 3 0 0 0 0 0 0 0 0 0 0 0 0 0 0 0 0
19 16 13 13 13 10 10 10 10 6 6 10 10 13 3 3 3 3 0 0 0 3 3 3 3 0 0 0 0 0 0 0 0 0 0 0 3 0 0 0 0 0 0
16 16 13 16 16 10 10 10 13 6 6 6 10 10 3 3 3 0 0 0 0 0 0 3 0 0 0 0 0 0 0 0 0 0 0 0 0 0 0 0 0 0 0
10 10 13 13 16 13 10 13 6 10 6 6 6 3 6 0 0 0 0 0 0 0 0 0 0 0 0 0 0 0 0 0 0 0 0 0 0 0 0 0 0 0 0
10 10 10 10 10 13 10 10 10 10 10 6 6 6 3 0 3 0 0 0 0 0 0 0 0 0 0 0 0 0 0 0 0 0 0 0 0 0 0 0 0 0 0
3 3 10 10 3 6 6 6 6 10 6 6 6 6 3 3 0 0 0 0 0 0 0 0 0 0 0 0 0 0 0 0 0 0 0 0 0 0 0 0 0 0 0
3 3 3 6 3 3 3 3 6 6 10 3 3 3 3 3 3 0 0 0 0 0 0 0 0 0 0 0 0 0 0 0 0 0 0 0 0 0 0 0 0 0 0
3 3 3 3 3 3 3 3 6 3 3 0 0 0 3 0 3 0 0 0 0 0 0 0 0 0 0 0 0 0 0 0 0 0 0 0 0 0 0 0 0 0 0
3 3 0 0 3 3 0 0 0 0 0 0 0 0 0 0 0 0 0 0 0 0 0 0 0 0 0 0 0 0 0 0 0 0 0 0 0 0 0 0 0 0 0
3 0 0 0 0 0 0 0 0 0 0 0 3 3 3 0 0 0 0 0 0 0 0 0 0 0 0 0 0 0 0 0 0 0 0 0 0 0 0 0 0 0 0
3 0 0 3 0 0 0 0 0 0 0 0 0 0 0 0 0 0 0 0 0 0 0 0 0 0 0 0 0 0 0 0 0 0 0 0 0 0 0 0 0 0 0
3 3 3 3 0 0 0 0 0 0 0 0 0 0 0 0 0 0 0 0 0 0 0 0 0 0 0 0 0 0 0 0 0 0 0 0 0 0 0 0 0 0 0
3 3 3 0 0 0 0 0 0 0 0 0 0 0 0 0 0 0 0 0 0 0 0 0 0 0 0 0 0 0 0 0 0 0 0 0 0 0 0 0 0 0 0
3 3 3 3 0 0 0 0 0 0 0 0 0 0 0 0 0 0 0 0 0 0 0 0 0 0 0 0 0 0 0 0 0 0 0 0 0 0 0 0 0 0 0
0 0 3 3 0 0 0 0 0 0 0 0 0 0 0 0 0 0 0 0 0 0 0 0 0 0 0 0 0 0 0 0 0 0 0 0 0 0 0 0 0 0 0
Height
5853 5855 5856 5858 5860 5861 5863 5864 5865 5866 5867 5867 5868 5869 5870 5871 5872 5872 5873 5874 5874 5874 5875 5875 5875 5875 5874 5874 5874 5873 5873 5872 5872 5871 5871 5870 5869 5868 5867 5866 5865 5863 5862
5850 5852 5854 5855 5857 5859 5860 5861 5863 5864 5865 5866 5866 5867 5868 5869 5870 5871 5871 5872 5873 5873 5873 5873 5873 5873 5873 5873 5872 5872 5872 5871 5870 5870 5869 5869 5868 5866 5865 5864 5863 5861 5860
5847 5848 5850 5852 5854 5855 5857 5858 5860 5861 5862 5863 5864 5865 5866 5867 5868 5869 5870 5870 5871 5871 5872 5872 5872 5872 5872 5871 5871 5871 5870 5869 5869 5868 5868 5867 5866 5865 5863 5862 5861 5859 5857
5842 5844 5846 5848 5850 5852 5853 5855 5857 5858 5859 5860 5862 5863 5864 5865 5866 5867 5867 5868 5869 5869 5870 5870 5870 5870 5870 5870 5869 5869 5868 5868 5867 5866 5865 5865 5864 5862 5861 5860 5858 5857 5855
5838 5840 5842 5844 5846 5848 5850 5851 5853 5855 5856 5857 5858 5860 5861 5862 5863 5864 5865 5865 5866 5867 5867 5868 5868 5868 5868 5867 5867 5867 5866 5866 5865 5864 5863 5862 5861 5860 5859 5857 5856 5854 5853
5833 5835 5837 5839 5841 5843 5845 5847 5849 5851 5852 5854 5855 5856 5858 5859 5860 5861 5862 5863 5863 5864 5864 5865 5865 5865 5865 5865 5865 5864 5864 5863 5862 5862 5861 5860 5859 5857 5856 5854 5853 5851 5850
5827 5829 5831 5834 5836 5838 5840 5842 5845 5846 5848 5850 5851 5853 5854 5855 5856 5857 5858 5859 5860 5861 5861 5862 5862 5862 5862 5862 5862 5861 5861 5860 5860 5859 5858 5857 5856 5854 5853 5851 5850 5848 5846
5821 5823 5825 5828 5830 5832 5835 5837 5839 5842 5844 5845 5847 5849 5850 5851 5852 5853 5855 5855 5856 5857 5858 5858 5859 5859 5859 5859 5859 5858 5858 5857 5856 5856 5855 5853 5852 5851 5849 5848 5846 5845 5843
5813 5816 5818 5821 5824 5826 5829 5832 5834 5836 5839 5841 5842 5844 5846 5847 5848 5849 5850 5851 5852 5853 5854 5855 5855 5855 5855 5855 5855 5855 5854 5854 5853 5852 5851 5850 5848 5847 5846 5844 5842 5841 5839
5806 5809 5811 5814 5817 5820 5823 5826 5828 5831 5833 5835 5837 5839 5841 5842 5844 5845 5846 5847 5848 5849 5850 5850 5851 5851 5852 5852 5852 5851 5851 5850 5849 5848 5847 5846 5844 5843 5842 5840 5838 5836 5834
5798 5801 5804 5807 5810 5813 5816 5819 5822 5824 5827 5829 5832 5834 5835 5837 5839 5840 5841 5843 5844 5845 5845 5846 5847 5847 5847 5848 5848 5847 5847 5846 5846 5844 5843 5842 5840 5839 5837 5836 5834 5832 5830
5791 5794 5797 5800 5803 5806 5809 5812 5815 5818 5820 5823 5825 5827 5829 5832 5833 5835 5836 5837 5839 5840 5841 5842 5842 5843 5843 5843 5843 5843 5843 5842 5841 5840 5839 5838 5836 5834 5833 5831 5829 5827 5824
5782 5786 5789 5792 5795 5799 5802 5805 5808 5811 5813 5816 5819 5821 5824 5826 5828 5829 5830 5832 5833 5835 5836 5837 5837 5838 5838 5838 5838 5838 5838 5837 5836 5835 5834 5833 5831 5829 5828 5826 5824 5821 5819
5774 5777 5781 5784 5787 5791 5794 5797 5801 5804 5807 5810 5812 5815 5817 5819 5822 5823 5824 5826 5828 5829 5831 5832 5832 5833 5833 5833 5833 5833 5832 5832 5831 5830 5829 5828 5826 5824 5822 5820 5818 5816 5813
5766 5769 5773 5776 5779 5783 5786 5790 5793 5796 5800 5803 5805 5808 5810 5813 5815 5817 5819 5820 5822 5823 5825 5826 5827 5827 5827 5827 5827 5827 5827 5826 5826 5825 5823 5822 5820 5818 5816 5814 5812 5809 5807
5758 5761 5765 5768 5771 5774 5778 5782 5785 5788 5792 5795 5798 5801 5803 5805 5808 5810 5812 5814 5815 5817 5818 5819 5820 5821 5821 5821 5821 5821 5821 5820 5820 5819 5817 5816 5814 5812 5810 5808 5806 5803 5800
5750 5753 5756 5760 5763 5766 5769 5773 5776 5780 5784 5787 5790 5793 5796 5798 5800 5803 5805 5806 5808 5809 5811 5812 5813 5814 5815 5815 5815 5815 5814 5814 5813 5812 5811 5810 5808 5806 5804 5801 5799 5796 5793
5742 5745 5749 5752 5755 5758 5761 5765 5768 5772 5776 5779 5782 5786 5788 5791 5793 5795 5797 5799 5801 5802 5803 5805 5806 5807 5808 5808 5808 5808 5808 5807 5806 5806 5804 5803 5801 5799 5797 5794 5792 5789 5786
5734 5737 5741 5744 5748 5751 5754 5757 5761 5764 5768 5771 5774 5778 5780 5783 5785 5788 5790 5792 5793 5795 5796 5797 5799 5800 5801 5801 5801 5801 5801 5800 5799 5798 5797 5796 5794 5792 5790 5788 5785 5782 5779
5727 5730 5733 5736 5740 5743 5746 5750 5753 5757 5760 5764 5767 5770 5773 5775 5778 5780 5782 5784 5786 5787 5789 5790 5791 5792 5793 5794 5794 5794 5793 5793 5792 5791 5790 5788 5787 5785 5783 5781 5778 5775 5772
5719 5722 5726 5729 5732 5736 5739 5742 5745 5749 5752 5755 5759 5762 5765 5768 5770 5772 5775 5777 5778 5780 5781 5783 5783 5784 5786 5786 5786 5786 5786 5785 5784 5783 5782 5781 5780 5778 5776 5773 5771 5768 5765
5712 5715 5718 5721 5725 5728 5731 5734 5737 5740 5744 5747 5751 5754 5757 5759 5762 5764 5766 5769 5770 5772 5773 5775 5776 5776 5777 5778 5778 5779 5779 5778 5777 5776 5775 5773 5772 5770 5768 5766 5763 5760 5757
5706 5708 5711 5714 5718 5721 5724 5726 5729 5733 5735 5739 5742 5746 5749 5751 5754 5756 5758 5760 5762 5763 5764 5766 5767 5768 5769 5769 5769 5770 5770 5770 5770 5769 5767 5766 5764 5762 5760 5758 5755 5753 5750
5699 5701 5704 5707 5710 5714 5717 5719 5722 5725 5728 5731 5734 5737 5740 5743 5745 5747 5749 5751 5753 5754 5756 5757 5759 5760 5760 5761 5761 5761 5761 5761 5761 5761 5760 5758 5756 5754 5752 5750 5748 5745 5742
5693 5695 5697 5700 5703 5706 5709 5712 5714 5717 5720 5723 5726 5728 5731 5734 5737 5739 5741 5743 5744 5746 5747 5748 5749 5751 5751 5752 5752 5752 5752 5752 5751 5751 5752 5750 5748 5746 5744 5742 5740 5737 5734
5687 5689 5691 5694 5696 5699 5702 5705 5707 5709 5712 5715 5718 5720 5723 5725 5728 5730 5732 5734 5735 5737 5738 5739 5740 5741 5741 5742 5742 5742 5743 5742 5742 5742 5742 5741 5740 5738 5736 5733 5731 5729 5726
Wind_Speed
19 19 20 20 19 18 17 16 16 14 13 12 12 12 11 11 10 10 9 8 7 7 6 5 5 5 5 6 6 6 6 7 7 7 8 9 9 10 11 12 13 14 15
20 21 21 21 20 19 19 17 17 16 15 14 13 13 13 13 12 11 10 9 9 8 8 7 7 7 7 7 7 8 8 8 8 8 9 10 11 12 13 14 15 15 15
22 22 22 22 22 21 20 19 18 18 17 16 15 14 14 14 13 12 11 11 10 10 9 9 8 8 8 8 9 9 9 9 9 10 10 12 12 13 14 15 15 16 16
23 23 24 24 24 23 22 21 20 19 18 17 17 17 16 15 15 14 13 12 12 11 11 10 10 10 10 10 10 10 11 11 11 11 12 13 14 15 15 15 16 16 16
25 25 26 26 25 25 24 24 23 22 20 20 19 18 18 17 16 16 15 14 14 13 13 12 12 11 11 11 12 12 12 12 13 13 13 14 15 15 16 16 17 17 17
27 27 27 27 27 27 26 26 25 24 23 22 21 20 19 18 18 18 17 17 16 15 14 14 13 13 13 13 13 13 13 13 14 15 15 15 16 16 16 17 17 18 18
29 29 30 29 29 29 29 28 27 26 25 24 23 22 21 20 20 19 19 19 18 16 16 15 15 15 14 14 14 14 14 15 15 16 16 17 17 17 17 18 19 19 19
30 30 31 31 31 31 31 30 29 28 27 26 25 24 23 22 21 21 20 20 19 18 17 17 16 16 16 16 15 15 15 16 16 17 17 18 18 19 19 19 20 20 21
31 31 32 32 33 32 32 31 31 30 29 28 27 27 25 24 23 23 22 21 20 20 19 19 18 17 17 17 17 17 17 17 17 18 18 19 20 20 20 21 21 22 22
32 32 32 33 33 33 33 33 32 32 31 30 29 29 28 27 26 24 23 23 22 21 21 20 20 19 19 19 19 18 18 19 19 19 20 20 21 21 21 21 22 23 23
33 33 33 33 33 34 34 33 33 33 32 32 31 30 29 28 28 26 25 25 24 23 23 22 21 21 20 20 20 20 20 20 21 21 21 21 22 22 22 23 23 24 24
34 34 34 34 34 34 34 34 34 34 34 33 33 31 30 30 29 28 27 26 25 25 24 23 23 23 22 22 22 22 22 22 22 22 22 23 23 23 24 24 24 25 25
35 35 35 35 36 36 36 36 35 35 34 34 34 33 32 31 31 30 29 28 27 26 26 25 25 24 24 24 23 23 23 23 23 23 24 24 24 25 25 25 26 26 26
35 36 36 36 37 38 38 37 37 36 36 35 35 34 34 33 32 31 30 29 28 27 27 27 26 26 25 25 25 25 25 25 24 24 25 26 26 26 26 27 27 28 28
35 35 36 36 37 38 39 39 38 38 38 37 36 35 35 34 34 33 32 30 30 29 29 28 28 27 27 27 27 26 26 26 26 26 27 27 27 28 28 28 29 29 30
34 35 36 36 37 38 39 39 39 39 39 38 37 36 35 34 34 33 33 33 32 31 30 30 29 29 29 28 28 28 28 28 28 28 28 28 28 29 29 30 30 30 31
33 35 35 35 37 38 40 40 39 40 40 39 38 37 36 35 35 35 33 33 32 32 31 30 30 30 30 30 29 29 29 29 29 29 30 30 30 30 30 31 31 31 32
33 34 36 35 36 37 39 40 39 39 40 40 39 38 37 36 35 35 35 34 33 32 32 31 31 31 31 31 31 31 30 30 30 30 31 31 31 31 31 31 31 31 32
34 35 36 35 36 37 38 39 40 39 39 39 39 38 37 37 35 35 34 34 34 34 33 32 32 31 31 31 31 31 31 31 31 31 31 32 32 32 32 32 32 32 33
35 35 35 36 37 37 37 39 39 40 41 40 39 39 38 37 36 36 35 36 35 35 34 34 34 33 32 32 31 32 33 32 32 32 32 32 32 33 33 32 33 33 33
34 35 36 37 37 37 37 38 39 40 40 41 41 40 40 39 38 37 36 37 36 36 35 34 33 34 33 33 33 33 33 33 32 32 33 33 33 33 33 33 33 33 33
33 35 37 37 37 37 37 37 38 38 40 40 40 40 41 40 39 38 36 36 37 37 37 36 35 34 35 35 35 34 34 33 33 34 34 33 33 33 33 33 33 33 33
32 35 37 37 38 38 38 37 38 39 39 39 39 40 41 41 40 39 38 37 37 38 37 37 37 36 35 37 37 36 35 35 34 34 34 34 34 33 33 34 33 33 33
30 32 35 37 38 39 37 36 37 39 39 39 40 40 40 40 39 39 38 38 38 39 39 39 39 38 37 37 37 37 36 36 35 34 34 34 35 35 35 35 34 34 34
31 32 34 36 38 38 37 36 36 38 39 39 39 40 40 42 41 40 40 39 39 40 40 40 41 40 40 39 39 39 38 37 36 36 35 35 35 36 36 35 34 34 34
30 32 32 34 37 37 37 36 35 36 38 39 40 39 39 40 41 41 40 40 40 40 40 40 41 41 41 40 39 39 40 38 37 36 37 36 36 37 36 36 35 34 34
Wind_Direction
242 239 237 237 236 236 235 235 234 232 231 230 230 230 230 230 233 234 236 238 239 244 250 258 265 275 286 295 301 305 310 315 318 321 325 327 329 329 328 328 329 329 328
244 241 239 238 237 236 235 234 235 235 235 234 234 232 233 233 232 232 234 238 243 248 253 260 266 272 280 288 294 300 303 307 311 315 318 320 322 322 322 323 325 326 326
244 241 239 238 238 238 237 234 236 237 237 238 237 236 234 232 231 232 236 240 245 249 254 260 267 272 278 284 291 296 299 302 306 310 313 315 316 317 318 319 321 322 323
245 242 241 239 239 239 237 235 236 238 238 239 239 237 236 235 235 236 237 241 246 250 255 262 268 272 278 282 287 292 295 299 302 305 308 310 312 313 315 316 317 319 320
245 242 242 240 239 239 238 236 236 239 239 239 238 237 238 239 240 240 239 243 247 251 256 262 267 272 276 280 284 288 292 295 298 300 303 306 308 310 312 314 315 317 317
244 242 241 240 239 239 239 239 237 239 240 239 238 237 238 240 242 242 242 245 248 251 256 261 265 270 274 278 283 286 290 293 295 298 300 303 305 307 310 311 313 314 315
246 244 241 240 239 239 239 239 239 238 240 240 239 240 240 242 243 244 246 246 248 251 257 260 264 268 273 277 280 284 288 291 295 298 300 301 302 304 307 309 310 311 312
246 243 241 240 240 239 239 238 239 238 240 240 240 241 242 243 245 245 246 248 250 252 256 260 263 266 271 274 278 282 286 291 295 298 300 300 300 302 304 305 307 308 309
246 242 240 240 239 239 239 238 238 239 240 240 240 242 243 242 243 245 246 249 251 253 255 259 261 264 268 273 277 281 285 290 294 297 300 300 300 301 302 303 305 306 306
245 241 239 239 238 239 239 238 238 238 239 240 241 242 243 244 243 244 246 249 251 253 255 258 260 263 267 271 276 280 284 288 292 295 297 299 300 301 301 302 303 305 305
244 241 239 238 237 238 238 238 238 237 238 239 241 243 243 244 244 245 247 249 251 253 256 258 260 263 266 271 275 279 282 286 290 293 295 297 299 299 300 301 302 304 304
244 241 239 238 236 236 236 237 238 237 237 239 241 242 243 244 246 245 248 250 251 254 257 259 261 263 267 270 274 277 281 285 288 291 293 296 298 299 299 301 301 302 303
242 241 239 237 236 235 235 236 237 238 238 239 241 242 242 245 247 247 248 251 252 254 257 259 261 264 267 270 273 276 279 283 287 290 293 295 296 298 299 300 301 301 302
241 239 239 238 236 235 235 236 237 238 238 240 241 242 243 245 246 248 249 250 252 254 257 259 261 264 266 269 272 275 279 282 287 289 292 294 295 297 298 299 300 300 301
241 239 238 238 237 236 236 237 238 239 238 239 241 243 244 246 246 247 250 252 253 255 257 259 261 264 267 269 272 275 278 282 286 288 291 293 295 296 297 298 299 300 300
240 239 238 238 237 237 236 237 238 239 239 239 241 243 244 246 247 247 250 251 252 253 255 257 261 264 267 269 271 275 277 281 285 287 289 292 294 295 296 297 298 299 299
239 238 238 239 238 238 237 237 239 240 240 241 243 245 245 245 246 245 250 250 251 253 254 257 260 263 267 269 272 274 277 280 283 285 288 290 293 295 296 297 297 298 299
239 238 238 239 239 240 239 238 239 240 240 242 244 245 246 247 248 249 250 250 251 252 254 256 260 263 266 270 272 274 277 280 282 285 287 289 291 293 295 296 297 298 299
240 239 238 238 239 240 241 240 239 240 241 242 243 244 246 247 250 251 252 253 253 253 255 257 261 264 267 271 273 275 278 280 282 284 286 288 290 292 294 295 296 298 299
241 238 238 239 239 240 241 241 240 241 242 242 243 244 246 249 251 253 253 254 255 256 258 260 261 264 267 270 275 278 279 280 282 283 284 287 289 291 292 294 295 297 298
242 238 237 239 239 240 241 242 240 241 241 242 243 245 246 249 251 254 256 255 256 258 259 261 264 265 266 270 274 276 278 279 281 282 283 285 288 289 291 293 295 296 298
244 240 239 240 240 242 243 243 241 242 241 242 243 245 246 248 251 254 257 257 256 258 260 262 264 266 267 270 273 275 277 279 280 281 284 285 287 289 291 292 294 295 296
245 242 241 241 241 242 244 245 243 242 243 244 245 246 247 249 251 253 255 257 256 257 260 262 265 266 269 270 270 274 278 279 280 281 283 285 286 288 290 291 293 295 296
245 245 243 242 242 242 245 247 246 245 244 245 246 247 248 249 251 252 255 257 258 258 261 263 265 266 269 271 271 273 276 278 279 281 282 284 286 288 290 291 292 294 295
246 245 245 244 243 243 246 248 251 249 247 247 248 249 251 251 252 254 257 258 260 262 262 264 265 266 269 271 272 273 274 277 278 280 281 283 285 287 289 290 291 292 294
248 246 247 246 245 245 246 249 251 252 250 250 250 251 252 253 254 255 257 258 262 264 265 265 266 267 269 271 273 274 273 274 276 279 281 282 284 286 287 289 289 291 293